Location: ??????
(41.3164°N, 22.6615°E)
Time: 00:04:26
(UTC+00:00)

CUBESAT XI-V - Pass Details

Date: 03 July 2022
Orbit: 668 x 690 km, 98.1° (Epoch: 15 August)

Event Time Altitude Azimuth Distance (km) Brightness Sun altitude
Exits shadow 00:52:58 33° 236° (SW) 1,118 ? -18.0°
Maximum altitude 00:53:52 37° 262° (W) 1,049 ? -18.0°
Drops below altitude 10° 00:58:08 10° 330° (NNW) 2,107 ? -17.5°
Sets 01:00:31 0° 339° (NNW) 3,023 ? -17.2°
